IZ3LCH-13 Weather Reports


Display with metric or nautical units.
time (UTC)temp
F
wind
direction
speed
MPH
gust
MPH
rain 1hr
in
rain 24hr
in
rain mn
in
humidity
%
barometer
mb
20260506195503 60 47 0.0 2.0 0.00 0.01 0.01 85 1010.2
20260506195003 60 47 0.0 2.0 0.00 0.01 0.01 85 1009.9
20260506194503 60 47 0.0 2.0 0.00 0.01 0.01 85 1009.9
20260506194003 60 47 0.0 2.0 0.00 0.01 0.01 85 1009.7
20260506193503 60 47 0.0 2.0 0.00 0.01 0.01 85 1009.4
20260506193003 60 47 0.0 2.0 0.00 0.01 0.01 85 1009.6
20260506192503 60 47 0.0 2.0 0.00 0.01 0.01 85 1009.5
20260506192003 61 47 0.0 2.0 0.00 0.01 0.01 85 1009.5
20260506191503 61 47 0.0 2.0 0.00 0.01 0.01 85 1009.5
20260506191003 61 47 0.0 2.0 0.00 0.01 0.01 85 1009.4
20260506190503 61 47 0.0 2.0 0.00 0.01 0.01 85 1009.3
20260506190004 61 47 0.0 2.0 0.00 0.01 0.01 85 1009.2
20260506185503 61 47 0.0 2.0 0.00 0.01 0.01 85 1009.3
20260506185003 61 47 0.0 2.0 0.00 0.01 0.01 84 1009.2
20260506184503 61 47 0.0 2.0 0.00 0.01 0.01 84 1009.2
20260506184003 61 47 0.0 2.0 0.00 0.01 0.01 84 1009.3
20260506183503 62 47 0.0 2.0 0.00 0.01 0.01 84 1009.1
20260506183003 62 47 0.0 2.0 0.00 0.01 0.01 84 1008.9
20260506182503 62 47 0.0 2.0 0.00 0.01 0.01 84 1008.9
20260506182003 62 47 0.0 2.0 0.00 0.01 0.01 84 1009.0
20260506181503 62 47 0.0 2.0 0.00 0.01 0.01 83 1008.7
20260506181003 62 47 0.0 2.0 0.00 0.01 0.01 83 1008.7
20260506180503 63 47 0.0 2.0 0.00 0.01 0.01 83 1008.6
20260506180004 63 47 0.0 2.0 0.00 0.01 0.01 83 1008.6
20260506175503 63 47 0.0 2.0 0.00 0.01 0.01 82 1008.5
20260506175003 63 47 0.0 2.0 0.00 0.01 0.01 82 1008.4
20260506174503 63 47 0.0 2.0 0.00 0.01 0.01 82 1008.4
20260506174003 64 47 0.0 2.0 0.00 0.01 0.01 82 1008.7
20260506173503 64 47 0.0 2.0 0.00 0.01 0.01 82 1008.8
20260506173003 64 47 0.0 2.0 0.00 0.01 0.01 82 1008.7
20260506172503 64 47 0.0 2.0 0.00 0.01 0.01 82 1008.8
20260506172003 64 47 0.0 2.0 0.00 0.01 0.01 82 1008.7
20260506171503 64 47 0.0 2.0 0.00 0.01 0.01 81 1008.5
20260506171003 64 47 0.0 2.0 0.00 0.01 0.01 81 1008.6
20260506170503 64 47 0.0 2.0 0.00 0.01 0.01 81 1008.3
20260506170003 64 47 0.0 2.0 0.00 0.01 0.01 81 1008.1
20260506165503 64 47 0.0 2.0 0.00 0.01 0.01 80 1008.5
20260506165003 64 47 0.0 2.0 0.00 0.01 0.01 80 1008.2
20260506164503 64 47 0.0 2.0 0.00 0.01 0.01 80 1008.4
20260506164003 64 47 0.0 2.0 0.00 0.01 0.01 80 1008.2
20260506163503 64 47 0.0 2.0 0.00 0.01 0.01 80 1008.4
20260506163003 64 47 0.0 2.0 0.00 0.01 0.01 80 1008.6
20260506162503 64 47 0.0 2.0 0.00 0.01 0.01 80 1008.5
20260506162003 64 47 0.0 2.0 0.00 0.01 0.01 79 1008.4
20260506161503 64 47 0.0 2.0 0.00 0.01 0.01 79 1008.6
20260506161003 65 47 0.0 2.0 0.00 0.01 0.01 78 1008.8
20260506160503 65 47 0.0 2.0 0.00 0.01 0.01 78 1008.7
20260506160003 65 75 1.0 8.0 0.00 0.01 0.01 77 1008.8
20260506155503 65 91 3.0 8.0 0.00 0.01 0.01 78 1008.4
20260506155003 65 102 4.0 9.0 0.00 0.01 0.01 77 1008.9
20260506154503 65 109 4.0 9.0 0.00 0.01 0.01 80 1008.6
20260506154003 65 109 4.0 7.0 0.00 0.01 0.01 81 1008.5
20260506153503 65 107 5.0 7.0 0.00 0.01 0.01 82 1008.8
20260506153003 65 106 5.0 6.0 0.00 0.01 0.01 82 1008.5
20260506152503 65 106 5.0 6.0 0.00 0.01 0.01 82 1008.6
20260506152003 65 106 5.0 6.0 0.00 0.01 0.01 82 1008.5
20260506151503 65 106 5.0 6.0 0.00 0.01 0.01 82 1008.6
20260506151003 64 104 5.0 8.0 0.00 0.01 0.01 82 1008.6
20260506150503 64 84 4.0 9.0 0.00 0.01 0.01 81 1008.5
20260506150003 64 55 4.0 9.0 0.00 0.01 0.01 81 1008.8
20260506145503 64 45 4.0 9.0 0.00 0.01 0.01 81 1008.8
20260506145003 64 46 4.0 7.0 0.00 0.01 0.01 82 1008.7
20260506144503 64 28 4.0 7.0 0.00 0.01 0.01 84 1008.7
20260506144003 64 3 5.0 5.0 0.00 0.01 0.01 84 1009.0
20260506143503 64 18 4.0 8.0 0.00 0.01 0.01 84 1009.0
20260506143003 64 37 4.0 8.0 0.00 0.01 0.01 84 1008.7
20260506142503 64 46 4.0 8.0 0.00 0.01 0.01 85 1009.0
20260506142003 64 42 4.0 9.0 0.00 0.01 0.01 85 1008.8
20260506141503 64 43 3.0 9.0 0.00 0.01 0.01 86 1008.9
20260506141003 63 52 3.0 6.0 0.00 0.01 0.01 86 1008.9
20260506140503 63 40 4.0 7.0 0.00 0.01 0.01 86 1008.9
20260506140003 63 37 4.0 7.0 0.00 0.01 0.01 87 1009.0
20260506135503 63 66 3.0 7.0 0.00 0.01 0.01 87 1009.0
20260506135003 63 82 3.0 7.0 0.00 0.01 0.01 87 1008.9
20260506134503 62 83 3.0 7.0 0.00 0.01 0.01 87 1009.1
20260506134003 62 83 3.0 7.0 0.00 0.01 0.01 87 1009.1
20260506133503 62 83 3.0 7.0 0.00 0.01 0.01 87 1009.2
20260506133003 62 83 3.0 7.0 0.00 0.01 0.01 87 1009.0
20260506132503 62 83 3.0 7.0 0.00 0.01 0.01 87 1009.1
20260506132003 62 83 3.0 7.0 0.00 0.01 0.01 87 1009.5
20260506131503 62 83 3.0 7.0 0.00 0.01 0.01 87 1009.1
20260506131003 62 83 3.0 7.0 0.00 0.01 0.01 87 1009.4
20260506130503 62 83 3.0 7.0 0.00 0.01 0.01 87 1009.3
20260506130003 62 83 3.0 7.0 0.00 0.01 0.01 86 1009.1
20260506125503 62 83 3.0 7.0 0.00 0.01 0.01 85 1009.2
20260506125003 62 83 3.0 7.0 0.00 0.01 0.01 84 1009.3
20260506124503 62 83 3.0 7.0 0.00 0.01 0.01 84 1009.4
20260506124003 62 83 3.0 7.0 0.00 0.01 0.01 83 1009.7
20260506123503 63 83 3.0 7.0 0.00 0.01 0.01 82 1009.7
20260506123003 63 83 3.0 7.0 0.00 0.01 0.01 81 1009.1
20260506122503 63 83 3.0 7.0 0.00 0.01 0.01 80 1009.4
20260506122003 64 83 3.0 7.0 0.00 0.01 0.01 80 1009.2
20260506121503 64 83 3.0 7.0 0.00 0.01 0.01 81 1009.4
20260506121003 64 83 3.0 7.0 0.00 0.01 0.01 81 1009.3
20260506120503 64 83 3.0 7.0 0.00 0.01 0.01 82 1009.1
20260506120003 64 83 3.0 7.0 0.00 0.01 0.01 82 1009.4
20260506115503 64 83 3.0 7.0 0.00 0.01 0.01 83 1009.4
20260506115003 64 83 3.0 7.0 0.00 0.01 0.01 83 1009.7
20260506114503 63 83 3.0 7.0 0.00 0.01 0.01 82 1009.7
20260506114003 63 83 3.0 7.0 0.00 0.01 0.01 82 1009.7
20260506113503 64 83 3.0 7.0 0.00 0.01 0.01 81 1009.7
20260506113003 64 79 3.0 8.0 0.00 0.01 0.01 81 1009.6
20260506112503 64 74 4.0 10.0 0.00 0.01 0.01 82 1010.0
20260506112003 64 60 4.0 10.0 0.00 0.01 0.01 82 1009.7
20260506111503 64 50 4.0 8.0 0.00 0.01 0.01 81 1009.7
20260506111003 64 57 4.0 10.0 0.00 0.01 0.01 81 1009.9
20260506110503 64 61 4.0 10.0 0.00 0.01 0.01 82 1010.1
20260506110003 63 55 5.0 9.0 0.00 0.01 0.01 83 1010.1
20260506105503 63 57 4.0 9.0 0.00 0.01 0.01 83 1010.2
20260506105003 63 78 4.0 9.0 0.00 0.01 0.01 83 1010.2
20260506104503 63 94 5.0 10.0 0.00 0.01 0.01 83 1010.4
20260506104003 62 98 5.0 10.0 0.00 0.01 0.01 84 1010.3
20260506103503 62 100 5.0 9.0 0.00 0.01 0.01 84 1010.4
20260506103003 62 99 5.0 6.0 0.00 0.01 0.01 83 1010.3
20260506102503 62 99 5.0 6.0 0.00 0.01 0.01 83 1010.3
20260506102003 62 99 5.0 6.0 0.00 0.01 0.01 83 1010.2
20260506101503 62 99 5.0 6.0 0.00 0.01 0.01 83 1010.5
20260506101003 62 97 5.0 6.0 0.00 0.01 0.01 82 1010.5
20260506100503 62 96 4.0 7.0 0.00 0.01 0.01 82 1010.6
20260506100003 62 99 4.0 9.0 0.00 0.01 0.01 83 1010.6
20260506095503 62 112 4.0 9.0 0.00 0.01 0.01 84 1010.6
20260506095003 62 121 4.0 7.0 0.00 0.01 0.01 85 1010.7
20260506094503 62 119 4.0 9.0 0.00 0.01 0.01 86 1010.5
20260506094003 62 112 5.0 9.0 0.00 0.01 0.01 86 1010.4
20260506093503 61 110 5.0 10.0 0.00 0.01 0.01 86 1010.5
20260506093003 61 109 3.0 10.0 0.00 0.01 0.01 86 1010.5
20260506092503 61 102 2.0 2.0 0.00 0.01 0.01 85 1010.6
20260506092003 61 102 2.0 2.0 0.00 0.01 0.01 85 1011.0
20260506091503 61 102 2.0 2.0 0.00 0.01 0.01 85 1010.6
20260506091003 61 102 2.0 2.0 0.00 0.02 0.01 84 1010.7
20260506090503 61 102 2.0 2.0 0.00 0.02 0.01 84 1010.7
20260506090003 61 102 2.0 2.0 0.00 0.02 0.01 84 1010.7
20260506085503 61 102 2.0 2.0 0.00 0.02 0.01 84 1010.7
20260506085003 61 102 2.0 2.0 0.00 0.02 0.01 83 1010.7
20260506084503 62 102 2.0 2.0 0.00 0.02 0.01 83 1010.2
20260506084003 62 116 2.0 6.0 0.00 0.02 0.01 84 1010.4
20260506083503 62 108 2.0 6.0 0.00 0.02 0.01 84 1010.5
20260506083003 62 63 2.0 5.0 0.00 0.02 0.01 85 1010.4
20260506082503 62 53 2.0 6.0 0.00 0.02 0.01 85 1010.1
20260506082003 62 66 1.0 6.0 0.00 0.02 0.01 86 1010.2
20260506081503 61 95 0.0 3.0 0.00 0.02 0.01 86 1010.2
20260506081003 61 100 1.0 5.0 0.00 0.02 0.01 87 1010.2
20260506080503 60 118 2.0 6.0 0.00 0.02 0.01 87 1010.2
20260506073503 60 333 0.0 1.0 0.00 0.02 0.01 88 1010.3
20260506073003 59 333 0.0 1.0 0.00 0.02 0.01 89 1010.4
20260506072503 59 333 0.0 1.0 0.00 0.02 0.01 89 1010.6
20260506072003 59 333 0.0 1.0 0.00 0.02 0.01 88 1010.8
20260506071503 59 333 0.0 1.0 0.00 0.02 0.01 89 1010.5
20260506071003 59 333 0.0 1.0 0.00 0.02 0.01 89 1010.5
20260506070503 59 333 0.0 1.0 0.00 0.02 0.01 89 1010.3
20260506062503 58 333 0.0 1.0 0.00 0.02 0.01 89 1010.3
20260506062003 57 333 0.0 1.0 0.00 0.02 0.01 89 1010.0
20260506061503 57 333 0.0 1.0 0.00 0.02 0.01 89 1010.0
20260506061003 57 342 0.0 2.0 0.00 0.02 0.01 89 1010.6
20260506060503 57 15 0.0 2.0 0.00 0.02 0.01 89 1010.1
20260506051003 56 79 2.0 4.0 0.00 0.02 0.01 88 1010.9
20260506050503 56 79 2.0 4.0 0.00 0.02 0.01 88 1010.4
20260506045003 56 81 1.0 2.0 0.00 0.02 0.01 88 1011.0
20260506044503 56 88 1.0 2.0 0.00 0.02 0.01 88 1011.0
20260506044003 56 77 0.0 2.0 0.00 0.02 0.01 88 1010.9
20260506043503 56 5 1.0 4.0 0.00 0.02 0.01 88 1010.9
20260506043003 56 330 2.0 6.0 0.00 0.02 0.01 88 1010.8
20260506042503 56 311 3.0 6.0 0.00 0.02 0.01 88 1010.8
20260506042003 56 305 3.0 6.0 0.01 0.02 0.01 88 1010.6
20260506041503 56 315 2.0 4.0 0.01 0.02 0.01 88 1010.3
20260506041003 56 319 3.0 5.0 0.00 0.02 0.01 88 1010.2
20260506040503 55 332 2.0 6.0 0.00 0.02 0.01 88 1010.2
20260506040004 55 14 3.0 6.0 0.00 0.02 0.01 88 1010.2
20260506035503 55 30 3.0 6.0 0.00 0.02 0.01 88 1010.0
20260506035003 55 34 2.0 5.0 0.00 0.02 0.01 88 1010.2
20260506034503 55 24 4.0 9.0 0.01 0.02 0.01 87 1009.8
20260506034003 55 18 5.0 9.0 0.01 0.02 0.01 87 1010.0
20260506033503 56 14 4.0 9.0 0.01 0.02 0.01 87 1010.0
20260506033004 56 8 4.0 7.0 0.01 0.02 0.01 86 1010.5
20260506032503 56 359 4.0 7.0 0.01 0.02 0.01 86 1010.3
20260506032003 56 360 4.0 8.0 0.00 0.02 0.00 86 1010.5
20260506031503 56 9 3.0 8.0 0.00 0.02 0.00 86 1010.7
20260506031003 56 342 3.0 6.0 0.00 0.02 0.00 86 1010.6
20260506030503 56 238 3.0 7.0 0.00 0.02 0.00 86 1011.0
20260506030003 56 180 3.0 7.0 0.00 0.02 0.00 86 1011.2
20260506025503 56 126 2.0 6.0 0.00 0.02 0.00 86 1011.3
20260506024503 56 11 1.0 3.0 0.00 0.01 0.00 86 1011.2
20260506024003 56 352 1.0 3.0 0.00 0.01 0.00 86 1010.9
20260506023503 56 341 2.0 4.0 0.00 0.01 0.00 86 1011.2
20260506023003 56 359 2.0 5.0 0.00 0.01 0.00 86 1011.2
20260506022503 56 360 2.0 5.0 0.00 0.01 0.00 86 1011.3
20260506022003 56 355 3.0 6.0 0.00 0.01 0.00 86 1011.4
20260506021503 56 356 3.0 6.0 0.00 0.01 0.00 85 1011.2
20260506021003 56 356 3.0 6.0 0.00 0.01 0.00 85 1011.2
20260506020503 56 360 3.0 5.0 0.00 0.01 0.00 85 1011.3
20260506020003 56 2 3.0 5.0 0.00 0.01 0.00 85 1011.2
20260506015503 56 359 3.0 5.0 0.00 0.01 0.00 85 1011.2
20260506015003 56 360 3.0 6.0 0.00 0.01 0.00 85 1011.5
20260506014503 56 3 3.0 6.0 0.00 0.01 0.00 85 1011.7
20260506014003 56 2 3.0 6.0 0.00 0.01 0.00 85 1011.2
20260506013503 56 360 3.0 7.0 0.00 0.01 0.00 85 1011.3
20260506013003 56 359 4.0 7.0 0.00 0.01 0.00 85 1011.2
20260506012503 56 360 4.0 7.0 0.00 0.01 0.00 85 1011.5
20260506012003 56 2 4.0 7.0 0.00 0.01 0.00 85 1011.3
20260506011503 56 2 4.0 7.0 0.00 0.01 0.00 85 1011.5
20260506011003 56 3 4.0 7.0 0.00 0.01 0.00 85 1011.7
20260506010503 56 12 4.0 8.0 0.00 0.01 0.00 85 1011.4
20260506010003 56 15 3.0 8.0 0.00 0.01 0.00 85 1011.6
20260506005503 56 14 3.0 6.0 0.00 0.01 0.00 85 1011.6
20260506005003 56 15 2.0 5.0 0.00 0.01 0.00 85 1011.5
20260506004504 56 11 2.0 4.0 0.00 0.01 0.00 85 1011.6
20260506004003 56 7 2.0 4.0 0.00 0.01 0.00 85 1011.6
20260506003503 56 16 2.0 4.0 0.00 0.01 0.00 85 1011.7
20260506003003 56 25 2.0 4.0 0.00 0.01 0.00 85 1011.8
20260506002503 56 15 2.0 4.0 0.00 0.01 0.00 85 1011.6
20260506002003 56 357 2.0 4.0 0.00 0.01 0.00 85 1011.8
20260506001503 56 353 2.0 4.0 0.00 0.01 0.00 85 1011.8
20260506001003 56 355 3.0 5.0 0.00 0.01 0.00 85 1011.8
20260506000503 56 357 3.0 5.0 0.00 0.01 0.00 85 1011.6
20260506000003 56 360 3.0 7.0 0.00 0.01 0.00 85 1011.7
20260505235503 56 354 3.0 7.0 0.00 0.01 0.00 85 1011.9
20260505235003 56 351 4.0 8.0 0.00 0.01 0.00 85 1011.8
20260505234503 56 354 3.0 8.0 0.00 0.01 0.00 86 1011.6
20260505234003 56 357 3.0 8.0 0.00 0.01 0.00 86 1011.9
20260505233503 56 356 3.0 8.0 0.00 0.01 0.00 86 1011.8
20260505233003 56 357 3.0 7.0 0.00 0.01 0.00 86 1011.9
20260505232503 56 3 3.0 7.0 0.00 0.01 0.00 86 1012.0
20260505232003 56 7 3.0 7.0 0.00 0.01 0.00 86 1012.0
20260505231503 56 1 4.0 8.0 0.00 0.01 0.00 86 1011.9
20260505231003 56 1 4.0 8.0 0.00 0.01 0.00 86 1011.7
20260505230503 56 4 4.0 8.0 0.00 0.01 0.00 86 1012.1
20260505230003 56 5 5.0 11.0 0.00 0.01 0.00 86 1011.9
20260505225503 56 2 6.0 11.0 0.00 0.01 0.00 86 1012.1
20260505225003 56 2 6.0 11.0 0.00 0.01 0.00 86 1012.0
20260505224503 56 3 6.0 12.0 0.00 0.01 0.00 86 1012.3
20260505224003 57 4 6.0 12.0 0.00 0.01 0.00 86 1012.3
20260505223503 57 4 6.0 12.0 0.00 0.01 0.00 86 1012.3
20260505223003 57 9 6.0 13.0 0.00 0.01 0.00 85 1012.5
20260505222503 57 14 6.0 13.0 0.00 0.01 0.00 85 1012.2
20260505222003 57 12 6.0 11.0 0.00 0.01 0.00 85 1012.3
20260505221503 57 6 5.0 10.0 0.00 0.01 0.00 85 1012.4
20260505221003 57 3 5.0 10.0 0.00 0.01 0.00 85 1012.4
20260505220503 57 5 5.0 10.0 0.00 0.01 0.00 84 1012.7
20260505220003 57 4 4.0 9.0 0.00 0.01 0.00 84 1012.2
20260505215503 57 7 4.0 8.0 0.00 0.01 0.01 84 1012.6
20260505215003 57 6 4.0 8.0 0.00 0.01 0.01 84 1012.7
20260505214503 57 360 5.0 10.0 0.00 0.01 0.01 84 1012.5
20260505214003 57 6 5.0 10.0 0.00 0.01 0.01 83 1012.5
20260505213503 57 9 5.0 9.0 0.00 0.01 0.01 83 1012.6
20260505213003 58 3 5.0 9.0 0.00 0.01 0.01 83 1012.8
20260505212503 58 1 5.0 11.0 0.00 0.01 0.01 83 1012.7
20260505212003 58 360 5.0 11.0 0.00 0.01 0.01 83 1012.7
20260505211503 58 360 4.0 11.0 0.00 0.01 0.01 83 1012.8
20260505211003 58 359 3.0 6.0 0.00 0.01 0.01 83 1012.9
20260505210503 58 359 4.0 7.0 0.00 0.01 0.01 83 1013.0
20260505210003 58 4 4.0 8.0 0.00 0.01 0.01 83 1013.0
20260505205503 58 1 5.0 8.0 0.00 0.01 0.01 83 1013.0
20260505205003 58 2 5.0 10.0 0.00 0.01 0.01 83 1012.7
20260505204503 58 7 4.0 10.0 0.00 0.01 0.01 83 1012.7
20260505204003 58 2 4.0 12.0 0.00 0.01 0.01 83 1012.5
20260505203503 58 358 5.0 12.0 0.00 0.01 0.01 83 1013.0
20260505203003 58 1 5.0 10.0 0.00 0.01 0.01 83 1012.9
20260505202503 58 360 6.0 10.0 0.00 0.01 0.01 83 1012.9
20260505202003 58 2 5.0 9.0 0.00 0.01 0.01 83 1013.1
20260505201503 58 6 5.0 9.0 0.00 0.01 0.01 83 1012.7
20260505201003 58 2 5.0 9.0 0.00 0.01 0.01 83 1013.2
20260505200503 58 360 5.0 10.0 0.00 0.01 0.01 83 1012.9
20260505200003 58 360 5.0 10.0 0.00 0.01 0.01 83 1012.6